[[{"header":{"parameterUnit":"m.s-1","parameterCategory":1,"la1":30.2991,"la2":30.254,"lo1":-89.0895,"lo2":-89.0444,"dy":0.0017,"dx":0.0017,"nx":28,"ny":28,"refTime":"2023-07-30T21:00:00:Z","depth":0,"parameterNumber":2,"parameterNumberName":"U-component_of_WINDS"},"data":[0,0,0,0,0,0,0,0,0,0,0,0,0,0,0,0,0,0,0,0,0,0,0,0,0,0,0,0,0,0,0,0,0,0,0,0,0,0,0,0,0,0,0,0,0,0,0,0,0,0,0,0,0,0,0,0,0,0,3.3029,3.3028,0,3.2963,3.2963,3.2962,3.28,3.2797,3.2793,3.279,3.2728,3.2729,3.2731,0,0,0,0,0,0,0,0,0,0,0,0,0,3.3019,3.302,3.3029,3.3028,3.3027,3.2963,3.2963,3.2962,3.2801,3.2797,3.2793,3.2789,3.2727,3.2729,3.2731,0,0,0,0,0,0,0,0,0,0,0,0,0,3.2996,3.3021,3.3029,3.2939,3.293,3.2964,3.2962,3.2961,3.2802,3.2797,3.2791,3.2787,3.2727,3.2729,3.2731,3.2847,0,0,3.2738,3.2739,0,0,0,0,0,0,0,0,3.2997,3.2996,3.2953,3.2945,3.2936,3.2884,3.2936,3.2923,3.2803,3.2851,3.279,3.2784,3.2784,3.2782,3.2781,3.2845,3.2842,3.2738,3.274,3.274,3.2741,0,0,0,0,0,0,0,3.2999,3.2998,3.3003,3.2953,3.2942,3.2904,3.2895,3.2933,3.2847,3.2846,3.2834,3.2829,3.2779,3.2779,3.2778,3.2841,3.2738,3.274,3.2742,3.2742,3.3,3.3005,0,0,0,0,0,0,3.3013,3.3001,3.3005,3.3001,3.2954,3.2908,3.2898,3.2906,3.2846,3.2832,3.2833,3.2821,3.2777,3.2775,3.2775,3.2909,3.274,3.2743,3.2744,3.2994,3.3001,3.3007,0,0,0,0,0,0,3.3014,3.3015,3.3007,3.2998,3.2994,3.2914,3.2924,3.2908,3.2907,3.2836,3.2821,3.2849,3.2773,3.2772,3.2831,3.2905,3.2744,3.2746,3.2988,3.2996,3.3004,3.3177,0,0,0,0,0,0,3.3014,3.3016,3.3058,3.3,3.2995,3.3063,3.2929,3.291,3.2911,3.2895,3.2847,3.2834,3.2769,3.2828,3.2833,3.2905,3.2747,3.2981,3.2992,3.3001,3.3165,3.319,3.3212,0,0,0,0,0,3.3014,3.311,3.3061,3.3063,3.3045,3.3068,3.3065,3.2988,3.2918,3.2961,3.2915,3.2835,3.2896,3.2836,3.284,3.2913,3.2976,3.2989,3.3001,3.3154,3.3185,3.3212,0,0,0,0,0,0,3.318,3.3101,3.3045,3.3125,3.3104,3.304,3.3092,3.3023,3.3023,3.3008,3.2913,3.2904,3.2976,3.295,3.2885,3.3024,3.2923,3.2937,3.3038,3.3068,3.3091,3.3096,3.2749,0,0,0,0,0,3.3226,3.3249,3.3179,3.3256,3.3248,3.3173,3.3179,3.3121,3.3097,3.3087,3.3046,3.3027,3.3041,3.3053,3.3062,3.316,3.3148,3.3213,3.3237,3.3257,3.327,3.3322,3.3351,3.3047,3.3047,3.3047,0,0,3.3321,3.328,3.3301,3.3288,3.3265,3.3294,3.3166,3.3201,3.3221,3.3093,3.3146,3.3116,3.3088,3.3168,3.3201,3.3148,3.3351,3.3272,3.3289,3.3291,3.3338,3.3367,3.3392,3.3056,3.3054,3.3053,0,0,3.3508,3.3479,3.3541,3.3521,3.3488,3.3437,3.3452,3.3399,3.3374,3.3425,3.333,3.3354,3.3381,3.3365,3.3361,3.3546,3.3473,3.3552,3.3677,3.3729,3.3753,3.3774,3.3841,3.3866,3.3565,3.3565,3.3566,0,3.3631,3.3668,3.3582,3.3623,3.3621,3.3506,3.3569,3.3554,3.3527,3.3529,3.3471,3.3503,3.3476,3.3551,3.3597,3.3596,3.3613,3.3557,3.3756,3.3776,3.3794,3.3858,3.3883,3.3575,3.3574,3.3573,3.3572,0,3.3821,3.3849,3.3903,3.3878,3.3883,3.3935,3.3859,3.3874,3.3817,3.3773,3.3829,3.3792,3.3793,3.3807,3.3751,3.3876,3.3844,3.3773,3.3669,3.3834,3.3892,3.3916,3.3589,3.3586,3.3583,3.358,0,0,3.4111,3.4039,3.4061,3.4049,3.4005,3.4025,3.4074,3.4073,3.4089,3.4075,3.4114,3.4141,3.4074,3.407,3.4011,3.4057,3.4208,3.3979,3.3977,3.4025,3.4346,3.4401,3.443,3.416,3.4164,3.4167,3.4349,0,3.4288,3.4365,3.429,3.4382,3.4408,3.43,3.4342,3.4321,3.4282,3.43,3.4257,3.4277,3.4187,3.4184,3.4224,3.4182,3.4272,3.4167,3.4198,3.42,3.4209,3.446,3.4518,3.4691,3.4371,3.4374,3.4377,0,3.4505,3.4501,3.4596,3.4547,3.4555,3.4594,3.4589,3.4607,3.4582,3.455,3.4547,3.4476,3.4522,3.4421,3.4485,3.4416,3.4424,3.4405,3.441,3.441,3.4299,3.4469,3.4744,3.4771,3.4412,3.4409,3.4406,0,3.471,3.4727,3.4786,3.4779,3.4724,3.4755,3.4733,3.4703,3.4708,3.4705,3.4708,3.471,3.4712,3.4717,3.465,3.4582,3.4723,3.4616,3.47,3.4702,3.4735,3.4734,3.5016,3.4739,3.4739,3.4738,3.4737,0,3.4916,3.4979,3.4877,3.4914,3.4982,3.4896,3.4967,3.4934,3.4909,3.4939,3.4846,3.4877,3.4785,3.4807,3.4755,3.4817,3.4819,3.4796,3.4782,3.4805,3.4808,3.481,3.4797,3.4745,3.4743,3.4742,3.4741,0,3.5156,3.509,3.5148,3.5091,3.5078,3.5131,3.5083,3.5116,3.5071,3.5111,3.5115,3.5046,3.5067,3.5,3.5011,3.4976,3.5067,3.5032,3.5076,3.5066,3.5154,3.5148,3.5448,3.5484,3.5183,3.5186,3.5189,0,3.5293,3.5338,3.5287,3.53,3.5283,3.5305,3.531,3.5228,3.5238,3.5214,3.5251,3.5264,3.527,3.531,3.5261,3.527,3.5235,3.534,3.5236,3.5259,3.5239,3.5238,3.5243,3.5362,3.5366,3.5369,3.5372,0,3.5543,3.5509,3.5519,3.5519,3.5527,3.5524,3.5513,3.553,3.5442,3.5458,3.5478,3.5483,3.5494,3.551,3.5508,3.5487,3.5417,3.5405,3.5425,3.545,3.5474,3.5464,3.5136,3.5398,3.5396,3.5394,3.5392,3.5391,3.5736,3.5773,3.5742,3.5758,3.5741,3.5735,3.5763,3.5722,3.5737,3.5739,3.569,3.5721,3.5697,3.5687,3.5674,3.5698,3.565,3.5679,3.5686,3.5695,3.5711,3.5469,3.5697,3.5697,3.5696,3.5695,3.5694,0,3.5983,3.5959,3.5974,3.5962,3.5975,3.5905,3.5891,3.5907,3.5935,3.5918,3.5926,3.595,3.5965,3.5919,3.5927,3.5956,3.5924,3.5961,3.5959,3.5956,3.5753,3.5735,3.5987,3.5987,3.5987,3.5987,3.5987,3.5987,3.6114,3.6172,3.6135,3.6185,3.616,3.6189,3.6187,3.6181,3.6167,3.6198,3.621,3.6178,3.615,3.6156,3.6168,3.6154,3.6162,3.6211,3.6187,3.5998,3.597,3.5943,3.5925,3.6213,3.6214,3.6388,3.6389,3.639]},{"header":{"parameterUnit":"m.s-1","parameterCategory":1,"la1":30.2991,"la2":30.254,"lo1":-89.0895,"lo2":-89.0444,"dy":0.0017,"dx":0.0017,"nx":28,"ny":28,"refTime":"2023-07-30T21:00:00:Z","depth":0,"parameterNumber":3,"parameterNumberName":"V-component_of_WINDS"},"data":[0,0,0,0,0,0,0,0,0,0,0,0,0,0,0,0,0,0,0,0,0,0,0,0,0,0,0,0,0,0,0,0,0,0,0,0,0,0,0,0,0,0,0,0,0,0,0,0,0,0,0,0,0,0,0,0,0,0,-1.2777,-1.2778,0,-1.2789,-1.2789,-1.2789,-1.2775,-1.2775,-1.2774,-1.2774,-1.2785,-1.2786,-1.2787,0,0,0,0,0,0,0,0,0,0,0,0,0,-1.2744,-1.2745,-1.2777,-1.2778,-1.2778,-1.2789,-1.2789,-1.2789,-1.2775,-1.2775,-1.2774,-1.2773,-1.2785,-1.2786,-1.2787,0,0,0,0,0,0,0,0,0,0,0,0,0,-1.2757,-1.2745,-1.2777,-1.2772,-1.2772,-1.2789,-1.2789,-1.2789,-1.2775,-1.2775,-1.2774,-1.2773,-1.2785,-1.2786,-1.2787,-1.281,0,0,-1.2791,-1.2791,0,0,0,0,0,0,0,0,-1.2757,-1.2759,-1.2773,-1.2772,-1.2772,-1.278,-1.2782,-1.2796,-1.2776,-1.2774,-1.2774,-1.2773,-1.2784,-1.2785,-1.2789,-1.2811,-1.2811,-1.2791,-1.2791,-1.2792,-1.2792,0,0,0,0,0,0,0,-1.2756,-1.2758,-1.2782,-1.2773,-1.2773,-1.2769,-1.277,-1.2784,-1.2783,-1.2774,-1.2773,-1.2775,-1.2784,-1.2788,-1.2789,-1.2811,-1.2791,-1.2792,-1.2793,-1.2793,-1.2854,-1.2855,0,0,0,0,0,0,-1.2755,-1.2757,-1.2782,-1.2782,-1.2762,-1.2771,-1.2772,-1.2778,-1.2783,-1.2783,-1.2775,-1.2774,-1.2786,-1.2788,-1.279,-1.2817,-1.2792,-1.2793,-1.2794,-1.2853,-1.2854,-1.2855,0,0,0,0,0,0,-1.2755,-1.2758,-1.2781,-1.277,-1.2772,-1.2772,-1.2779,-1.2779,-1.2783,-1.2784,-1.2784,-1.278,-1.2786,-1.2788,-1.2805,-1.2818,-1.2794,-1.2795,-1.2852,-1.2853,-1.2854,-1.2873,0,0,0,0,0,0,-1.2754,-1.2758,-1.2766,-1.277,-1.2773,-1.2796,-1.278,-1.278,-1.2785,-1.2783,-1.2788,-1.2788,-1.2785,-1.2804,-1.2807,-1.2819,-1.2796,-1.2851,-1.2852,-1.2854,-1.2871,-1.2875,-1.2878,0,0,0,0,0,-1.2753,-1.277,-1.2766,-1.2769,-1.2783,-1.2797,-1.2799,-1.2795,-1.2786,-1.2795,-1.2796,-1.2788,-1.2816,-1.2806,-1.2809,-1.2821,-1.285,-1.2852,-1.2854,-1.287,-1.2874,-1.2878,0,0,0,0,0,0,-1.2767,-1.2771,-1.2766,-1.2786,-1.2791,-1.2795,-1.2805,-1.28,-1.2808,-1.2806,-1.2801,-1.2803,-1.2821,-1.2823,-1.2811,-1.2845,-1.2832,-1.2834,-1.2842,-1.2847,-1.285,-1.2848,-1.2797,0,0,0,0,0,-1.2772,-1.2783,-1.2786,-1.2803,-1.2806,-1.2805,-1.2811,-1.2808,-1.2813,-1.2816,-1.2818,-1.2823,-1.2834,-1.284,-1.285,-1.2872,-1.2873,-1.2883,-1.2886,-1.2889,-1.2891,-1.2903,-1.2908,-1.2861,-1.2861,-1.2861,0,0,-1.2783,-1.2787,-1.2794,-1.2806,-1.2809,-1.2821,-1.2807,-1.2819,-1.2828,-1.2817,-1.2834,-1.2836,-1.2842,-1.2863,-1.2871,-1.2865,-1.2904,-1.2891,-1.2893,-1.2894,-1.2906,-1.291,-1.2914,-1.2863,-1.2863,-1.2862,0,0,-1.2809,-1.2813,-1.2828,-1.2832,-1.2839,-1.2839,-1.2843,-1.2847,-1.2848,-1.2865,-1.2858,-1.2869,-1.2886,-1.2891,-1.2896,-1.2927,-1.292,-1.293,-1.2947,-1.2959,-1.2963,-1.2966,-1.2977,-1.2981,-1.2932,-1.2933,-1.2933,0,-1.2822,-1.2839,-1.2836,-1.2849,-1.2855,-1.2847,-1.2862,-1.2867,-1.2876,-1.2881,-1.2874,-1.2897,-1.29,-1.2922,-1.2929,-1.2934,-1.2938,-1.2929,-1.2963,-1.2966,-1.2969,-1.298,-1.2984,-1.2934,-1.2934,-1.2933,-1.2933,0,-1.2854,-1.2866,-1.2878,-1.2887,-1.2895,-1.2909,-1.2909,-1.2917,-1.2914,-1.2915,-1.2933,-1.2937,-1.2948,-1.2953,-1.295,-1.2975,-1.2971,-1.2963,-1.295,-1.2975,-1.2984,-1.2988,-1.2935,-1.2935,-1.2935,-1.2934,0,0,-1.2887,-1.2897,-1.2901,-1.2906,-1.2914,-1.2923,-1.2938,-1.2949,-1.2956,-1.2963,-1.2976,-1.2992,-1.2986,-1.2991,-1.2989,-1.3,-1.3025,-1.2992,-1.2992,-1.2998,-1.3053,-1.3059,-1.3063,-1.3022,-1.3022,-1.3023,-1.3053,0,-1.2913,-1.2938,-1.2937,-1.2961,-1.2972,-1.2966,-1.2979,-1.2986,-1.2988,-1.2998,-1.3001,-1.3012,-1.3003,-1.3006,-1.3017,-1.302,-1.3036,-1.3018,-1.3033,-1.3034,-1.3031,-1.3068,-1.3074,-1.3102,-1.3057,-1.3057,-1.3058,0,-1.2946,-1.2955,-1.298,-1.2988,-1.2993,-1.3004,-1.3015,-1.3025,-1.3033,-1.3034,-1.3042,-1.3038,-1.3054,-1.3041,-1.3063,-1.3051,-1.3057,-1.306,-1.3061,-1.3061,-1.3047,-1.307,-1.311,-1.3115,-1.3064,-1.3063,-1.3063,0,-1.2967,-1.2986,-1.3004,-1.3009,-1.3018,-1.3026,-1.3031,-1.3038,-1.3045,-1.3055,-1.306,-1.3071,-1.3078,-1.3087,-1.3087,-1.3078,-1.311,-1.3097,-1.3111,-1.3111,-1.3117,-1.3117,-1.3159,-1.3122,-1.3122,-1.3122,-1.3122,0,-1.2996,-1.3011,-1.3014,-1.3025,-1.3042,-1.3042,-1.306,-1.3063,-1.307,-1.3082,-1.3078,-1.3089,-1.3089,-1.3101,-1.3102,-1.312,-1.3123,-1.3125,-1.3124,-1.3125,-1.3124,-1.3128,-1.3126,-1.3123,-1.3123,-1.3123,-1.3123,0,-1.3022,-1.3024,-1.3043,-1.3051,-1.3054,-1.3067,-1.3074,-1.3084,-1.3087,-1.3102,-1.3106,-1.311,-1.3124,-1.3125,-1.3141,-1.3142,-1.3164,-1.3162,-1.3162,-1.3161,-1.3175,-1.3174,-1.3221,-1.3228,-1.3187,-1.3188,-1.3188,0,-1.3039,-1.3051,-1.3061,-1.3069,-1.3074,-1.3087,-1.3095,-1.3096,-1.3104,-1.3115,-1.3125,-1.3139,-1.3149,-1.3172,-1.3177,-1.319,-1.3188,-1.3203,-1.3189,-1.319,-1.3188,-1.3187,-1.3188,-1.3206,-1.3206,-1.3206,-1.3207,0,-1.307,-1.3072,-1.3083,-1.3096,-1.3105,-1.3115,-1.3124,-1.3131,-1.3133,-1.3143,-1.3157,-1.3166,-1.3183,-1.3197,-1.321,-1.3215,-1.3212,-1.3212,-1.3215,-1.3215,-1.3214,-1.3215,-1.3168,-1.321,-1.321,-1.3209,-1.3209,-1.3209,-1.3093,-1.3103,-1.3113,-1.3126,-1.3133,-1.3143,-1.3153,-1.3158,-1.317,-1.3184,-1.3185,-1.3201,-1.321,-1.3228,-1.3234,-1.3247,-1.3242,-1.3248,-1.3249,-1.325,-1.3252,-1.3213,-1.3249,-1.3249,-1.3249,-1.3249,-1.3249,0,-1.3123,-1.313,-1.3142,-1.3156,-1.3167,-1.3163,-1.3174,-1.3183,-1.3197,-1.3207,-1.3218,-1.3236,-1.325,-1.3256,-1.3271,-1.328,-1.3279,-1.3284,-1.3283,-1.3284,-1.3255,-1.325,-1.3284,-1.3284,-1.3284,-1.3284,-1.3284,-1.3284,-1.314,-1.3159,-1.3162,-1.3184,-1.3191,-1.3207,-1.3213,-1.3222,-1.323,-1.325,-1.3261,-1.3266,-1.3275,-1.329,-1.3303,-1.3305,-1.331,-1.3316,-1.3317,-1.3289,-1.3286,-1.3282,-1.3278,-1.3317,-1.3317,-1.3344,-1.3344,-1.3344]}]]